Regional Weather Roundup
Issued by NWS Cleveland, OH

Home | Current Version | Previous Version | Graphics & Text | Print | Product List | Glossary Off
Versions: 1 2 3 4 5 6 7 8 9 10 11 12 13 14 15 16 17 18 19 20 21 22 23 24 25 26 27 28 29 30 31 32 33 34 35 36 37 38 39 40 41 42 43 44 45 46 47 48 49 50

000
ASUS41 KCLE 210010
RWRCLE
OHIO REGIONAL WEATHER ROUNDUP
NATIONAL WEATHER SERVICE CLEVELAND, OH
700 PM EST SAT DEC 20 2014

NOTE: "FAIR" INDICATES FEW OR NO CLOUDS BELOW 12,000 FEET WITH NO
SIGNIFICANT WEATHER AND/OR OBSTRUCTIONS TO VISIBILITY.

OHZ001>008-015>018-024>027-034-035-043-044-210100-
   NORTHWEST OHIO

CITY           SKY/WX    TMP DP  RH WIND       PRES   REMARKS
DEFIANCE       CLOUDY    31  23  72 CALM      30.29R
FINDLAY        CLOUDY    31  24  75 S5        30.27R WCI  26
TOLEDO EXPRESS CLOUDY    30  22  72 CALM      30.28R
TOLEDO EXEC    CLOUDY    31  23  72 S3        30.29S
LIMA           CLOUDY    32  24  72 SW5       30.27R WCI  27
$$

OHZ009>014-019>023-028>033-038-089-210100-
   NORTHEAST OHIO

CITY           SKY/WX    TMP DP  RH WIND       PRES   REMARKS
CLE-HOPKINS    CLOUDY    30  22  72 W3        30.30S
CLE-LAKEFRONT  CLOUDY    32  23  69 W5        30.28R WCI  27
CUY CO. ARPT   NOT AVBL
LORAIN-ELYRIA  CLOUDY    29  23  78 CALM      30.28S
ASHTABULA      CLOUDY    30  24  78 CALM      30.27S
AKRON-CANTON   CLOUDY    29  21  72 CALM      30.25S
WOOSTER        CLOUDY    29  20  69 CALM      30.27R
MANSFIELD      CLOUDY    29  23  78 CALM      30.25R
YOUNGSTOWN     CLOUDY    29  21  72 NW3       30.25S
$$

OHZ042-051>053-060>062-070>072-077>081-210100-
  SOUTHWEST OHIO

CITY           SKY/WX    TMP DP  RH WIND       PRES   REMARKS
CINC-COVINGTON CLOUDY    32  24  72 N5        30.28S WCI  27
CINC-LUNKEN    CLOUDY    31  27  85 NE3       30.32R
HAMILTON       CLOUDY    32  27  81 CALM      30.31R
DAYTON         CLOUDY    31  24  75 CALM      30.28S
WRIGHT-PAT AFB CLOUDY    31  23  73 CALM      30.29R
DAYTON GENERAL CLOUDY    31  24  75 CALM      30.27R
WILMINGTON     CLOUDY    30  23  75 CALM      30.27S
$$

OHZ036-037-039>041-045>050-054>059-063>069-073>076-082>088-210100-
  CENTRAL AND SOUTHEAST OHIO

CITY           SKY/WX    TMP DP  RH WIND       PRES   REMARKS
COLUMBUS       CLOUDY    30  23  75 CALM      30.28R
OSU AIRPORT    CLOUDY    30  24  78 CALM      30.28R
BOLTON FIELD   CLOUDY    30  25  81 MISG      30.28R
RICKENBACK AFB CLOUDY    31  25  80 CALM      30.28S
NEWARK         CLOUDY    31  24  75 NW3       30.28R
MARION         CLOUDY    29  24  82 CALM      30.28R
LANCASTER      CLOUDY    35  26  69 CALM      30.29R
ZANESVILLE     CLOUDY    30  22  72 CALM      30.28R
NEW PHILLY     CLOUDY    31  21  66 CALM      30.28R
$$


USA.gov is the U.S. government's official web portal to all federal, state and local government web resources and services.